Preview of NWS' New Version of Forecast
This preview is not operational and should not be used for support decisions.

Regional Weather Roundup (RWR)

Issued by National Weather Service (NWS)

                            
000
ASUS42 KTBW 211718
RWRFL 
FLORIDA REGIONAL WEATHER ROUNDUP
NATIONAL WEATHER SERVICE TAMPA BAY RUSKIN FL
100 PM EDT SUN JUL 21 2019

NOTE: "FAIR" INDICATES FEW OR NO CLOUDS BELOW 12,000 FEET WITH NO
SIGNIFICANT WEATHER AND/OR OBSTRUCTIONS TO VISIBILITY.

FLZ001>010-012>015-112-114-115-211800-
PANHANDLE FLORIDA
  
CITY           SKY/WX    TMP DP  RH WIND       PRES   REMARKS
PENSACOLA      LGT RAIN  77  76  96 W9        30.09S                  
PENSACOLA NAS  RAIN      75  75 100 SW7       30.10S FOG              
MILTON NAS     PTSUNNY   80  72  76 SE10        N/A                   
CRESTVIEW      HVY RAIN  78  73  84 W10       30.10R                  
DUKE FIELD     FAIR      84  72  65 SW10      30.07S                  
VALPARAISO     FAIR      87  73  62 S8        30.07S HX  95           
MARY ESTHER    PTSUNNY   86  76  70 SE9       30.07R HX  96           
TRI COUNTY     FAIR      89  72  56 VRB5      30.08  HX  96           
PANAMA CITY    FAIR      89  71  55 SE9       30.07S HX  95           
TYNDALL AFB    FAIR      87  74  64 SW7       30.06S HX  95           
APALACHICOLA   FAIR      87  74  64 SE7       30.08S HX  95           

STATION/POSITION SKY/WX   TEMP    WIND        PRES    WAVE   SWELL
                          AIR SEA DIR/SP/G            HT/PER HT/PER
                          (F)     (DEG/KT/KT) (MB)    (FT/S) (FT/S)
30.1N   87.6W              77 85   80/  8/ 10 1018.8F   1/ 3
29.2N   88.2W              76 84  120/  6/  6 1018.9
28.8N   86.0W                 86  220/ 17/ 21 1018.9R   1/ 3
PANAMA CITY BEAC           83 85  180/  5/  8 1019.2R
TOWER C                    84      CALM  /  1 1019.1R
28.5N   84.5W              78      80/  2/  6 1019.3F   1/ 4   2/ 4

$$
FLZ011-016>038-118-127-128-134-139-239-211800-
NORTH FLORIDA
  
CITY           SKY/WX    TMP DP  RH WIND       PRES   REMARKS
MARIANNA       PTSUNNY   88  72  58 SW5       30.07S                  
TALLAHASSEE    FAIR      90  73  57 NW5       30.07S HX  98           
PERRY          FAIR      90  72  55 CALM      30.09R HX  97           
LIVE OAK       MOSUNNY   88  72  58 CALM      30.08S                  
CROSS CITY     PTSUNNY   86  76  71 W9        30.08R THUNDER HX  96   
LAKE CITY      FAIR      86  72  62 CALM      30.09S                  
GAINESVILLE    PTSUNNY   87  72  60 SW5       30.11S                  
WILLISTON      FAIR      89  74  62 SW6       30.08S HX  98           
PALATKA        FAIR      91  72  52 SW5       30.08S HX  98           
MAYPORT NAS    FAIR      88  75  65 E8        30.08S HX  97           
JACKSONVILLE   PTSUNNY   90  73  57 NE3       30.08R HX  98           
JAX NAS        FAIR      90  72  55 E9        30.09S HX  97           
JAX CECIL      PTSUNNY   95  73  49 VRB5      30.08S HX 105           
FERNANDINA BEA FAIR      87  77  70 E7        30.09R HX  99           
ST AUGUSTINE   PTSUNNY   88  77  69 E13       30.09S HX 100           
PALM COAST     MOSUNNY   88  75  66 VRB6      30.08S HX  97           

STATION/POSITION SKY/WX   TEMP    WIND        PRES    WAVE   SWELL
                          AIR SEA DIR/SP/G            HT/PER HT/PER
                          (F)     (DEG/KT/KT) (MB)    (FT/S) (FT/S)
SHELL POINT      NOT AVBL
KEATON BEACH               84     260/  7/  8 1019.0R
CEDAR KEY                  84     160/  3/  4 1018.8R
FERNANDINA                 92 84  340/  2/  3 1019.7R
30.7N   81.3W                 85                N/A     2/ 8
MAYPORT                    86 81   70/  5/  8 1019.2R
31.4N   80.9W              83 84  260/  4/  4 1019.0S   2/ 9   2/ 9
ST AUGUSTINE               81 77  120/  9/ 10 1018.8F

$$
FLZ040-043>046-052-053-057-058-063-144-211800-
INTERIOR CENTRAL FLORIDA
  
CITY           SKY/WX    TMP DP  RH WIND       PRES   REMARKS
OCALA          FAIR      89  74  60 CALM      30.09S HX  98           
LEESBURG       FAIR      91  72  53 VRB3      30.09R HX  98           
SANFORD        FAIR      91  71  51 VRB5      30.08R HX  97           
ORLANDO EXEC   FAIR      91  70  49 VRB3      30.08S HX  96           
ORLANDO INTL   PTSUNNY   90  72  55 VRB5      30.07S HX  97           
KISSIMMEE      PTSUNNY   89  73  59 VRB3      30.09S HX  97           
WINTER HAVEN   FAIR      89  73  59 S7        30.09S HX  97           
LAKELAND       PTSUNNY   88  73  62 S3        30.08S HX  96           
BARTOW         PTSUNNY   91  73  55 SE5       30.07S HX 100           
SEBRING        FAIR      86  76  71 NE6       30.07S HX  95           
OKEECHOBEE     FAIR      86  75  70 E5        30.08R HX  95           

$$
FLZ041-047-054-059-064-141-147-211800-
EAST CENTRAL FLORIDA
  
CITY           SKY/WX    TMP DP  RH WIND       PRES   REMARKS
ORMOND BEACH   MOSUNNY   88  77  70 E8        30.08S HX 100           
DAYTONA BEACH  FAIR      87  78  74 VRB5      30.08S HX 100           
DELAND         FAIR      90  72  55 S5        30.08S HX  96           
NEW SMYRNA BEA MOSUNNY   86  75  70 E12       30.10R HX  95           
JFK SPACE CTR  MOSUNNY   90  65  43 S10       30.08R                  
TITUSVILLE     MOSUNNY   91  73  55 SE9       30.09S HX 100           
CAPE CANAVERAL MOSUNNY   89  55  31 SE10      30.07S                  
PATRICK AFB    FAIR      90  79  70 SE10      30.08S HX 105           
MELBOURNE      FAIR      89  77  67 E10       30.08R HX 101           
VERO BEACH     FAIR      90  76  63 E13       30.08S HX 101           
FT PIERCE      FAIR      87  74  64 E13       30.07F HX  95           
STUART         MOSUNNY   88  73  62 SE12G17   30.09R HX  96           

STATION/POSITION SKY/WX   TEMP    WIND        PRES    WAVE   SWELL
                          AIR SEA DIR/SP/G            HT/PER HT/PER
                          (F)     (DEG/KT/KT) (MB)    (FT/S) (FT/S)
28.5N   80.2W              84 84  150/  8/ 10 1018.8R   2/ 8   2/ 8
28.9N   78.5W              85 86  140/ 10/ 12   N/A     2/ 8   2/ 8
TRIDENT PIER               87 83  130/  7/  9 1020.2S
28.4N   80.5W                 84                N/A     1/ 7
27.5N   80.2W                 83                N/A     1/ 8

$$
FLZ050-056-061-142-242-148-248-149-249-151-251-155-255-
160-260-211800-
WEST CENTRAL FLORIDA
  
CITY           SKY/WX    TMP DP  RH WIND       PRES   REMARKS
CRYSTAL RIVER  FAIR      90  72  55 CALM      30.08S HX  96           
INVERNESS      FAIR      90  77  66 SE5       30.09S HX 102           
BROOKSVILLE    FAIR      90  73  57 SE5       30.09R HX  98           
CLEARWATER AIR FAIR      88  72  58 E5        30.08R                  
ST PETE CLEARW FAIR      89  73  59 SE10      30.07S HX  97           
TAMPA INTL     FAIR      90  71  53 VRB6      30.08S HX  96           
TAMPA EXEC     PTSUNNY   88  73  62 S3        30.08S HX  96           
PLANT CITY     CLOUDY   N/A N/A N/A MISG      30.10S                  
MACDILL AFB    FAIR      88  74  62 S3        30.07F HX  97           
PETER O KNIGHT PTSUNNY   90  75  62 S7        30.08S HX 100           
ST PETERSBURG  FAIR      87  74  64 SE3       30.06S HX  95           
SARASOTA       CLOUDY    87  75  67 SW9       30.05F HX  96           
VENICE         FAIR      90  77  66 S7        30.07F HX 102           

STATION/POSITION SKY/WX   TEMP    WIND        PRES    WAVE   SWELL
                          AIR SEA DIR/SP/G            HT/PER HT/PER
                          (F)     (DEG/KT/KT) (MB)    (FT/S) (FT/S)
27.3N   84.2W                 87                N/A     2/ 4
CLEARWATER BEACH           81 88  230/ 15/ 18 1018.6R
MIDDLE TAMPA BAY           87      CALM  /  1 1018.9R
VENICE                     85 86  200/  7/  8 1018.0F

$$
FLZ066-069-070-075>078-162-262-165-265-211800-
SOUTHWEST FLORIDA AND KEYS
  
CITY           SKY/WX    TMP DP  RH WIND       PRES   REMARKS
PUNTA GORDA    FAIR      89  73  59 S10       30.08F HX  97           
FT MYERS       FAIR      89  70  53 S6        30.06S                  
SOUTHWEST INTL FAIR      89  70  53 S3        30.07R                  
MARCO ISLAND   FAIR      91  73  55 MISG      30.08R HX  99           
IMMOKALEE      FAIR      93  70  46 SE7G13    30.05S HX  99           
MARATHON       FAIR      90  76  63 SE8       30.06R HX 101           
KEY WEST NAS   PTSUNNY   91  74  57 SE14      30.06R HX 100           
KEY WEST INTL  FAIR      88  75  65 SE12      30.07R HX  97           

STATION/POSITION SKY/WX   TEMP    WIND        PRES    WAVE   SWELL
                          AIR SEA DIR/SP/G            HT/PER HT/PER
                          (F)     (DEG/KT/KT) (MB)    (FT/S) (FT/S)
NAPLES                     88 86              1018.4R
26.0N   85.6W              85 86   70/  4/  4 1017.9R   2/ 5   2/ 5
DRY TORTUGAS               82     150/ 14/ 17 1018.2R
SAND KEY                   84     130/ 11/ 13 1016.9
SOMBRERO KEY               83     140/  7/  8 1018.2R
LONG KEY                   85                 1017.2

$$
FLZ067-068-071>074-168-172>174-211800-
SOUTHEAST FLORIDA 
  
CITY           SKY/WX    TMP DP  RH WIND       PRES   REMARKS
W PALM BEACH   PTSUNNY   87  74  64 SE16      30.08S HX  95           
FT LAUDER-EXEC FAIR      88  74  63 E12       30.08R HX  96           
FT LAUDERDALE  PTSUNNY   88  75  65 E14       30.07R HX  97           
POMPANO BEACH  PTSUNNY   87  74  64 E15       30.08R HX  95           
PEMBROKE PINES PTSUNNY   91  73  55 E13G18    30.08S HX  99           
OPA LOCKA      FAIR      91  74  57 SE13      30.08R HX 100           
MIAMI          PTSUNNY   90  71  53 E13       30.08R HX  96           
WEST KENDALL   FAIR      90  75  61 SE10G16   30.07R HX 100           
HOMESTEAD      FAIR      89  77  66 E9        30.06S HX 101           

STATION/POSITION SKY/WX   TEMP    WIND        PRES    WAVE   SWELL
                          AIR SEA DIR/SP/G            HT/PER HT/PER
                          (F)     (DEG/KT/KT) (MB)    (FT/S) (FT/S)
VIRGINIA KEY               85 88   80/  8/ 10 1017.9F
LAKE WORTH                 81 84  130/ 13/ 19 1019.8S
FOWEY ROCKS                84 85  100/  9/ 11 1018.8R
SETTLEMENT POINT           81     170/  7/  8 1019.1R

$$